Regional Weather Roundup
Issued by NWS

Home | Current Version | Previous Version | Graphics & Text | Print | Product List | Glossary Off
Versions: 1 2 3 4 5 6 7 8 9 10 11 12 13 14 15 16 17 18 19 20 21 22 23 24 25 26 27 28 29 30 31 32 33 34 35 36 37 38 39 40 41 42 43 44 45 46 47 48 49 50

000
ASUS43 KLSX 240507
RWRMO
WEATHER SUMMARY FOR MISSOURI
NATIONAL WEATHER SERVICE SPRINGFIELD MO
1200 AM CDT WED MAY 24 2017

NOTE: "FAIR" INDICATES FEW OR NO CLOUDS BELOW 12,000 FEET WITH NO
       SIGNIFICANT WEATHER AND/OR OBSTRUCTIONS TO VISIBILITY.
       CURRENT SKY AND/OR WEATHER CONDITIONS ARE NOT AVAILABLE FOR
       CHILLICOTHE AND FARMINGTON.

MOZ001>031-035>038-043-044-053-054-240600-
...NORTHERN AND WESTERN MISSOURI...

CITY           SKY/WX    TMP DP  RH WIND       PRES   REMARKS
KANSAS CTY INT PTCLDY    52  46  80 NW8       29.78F
KANSAS C DTWN  PTCLDY    54  49  83 CALM      29.78F
LEE`S SUMMIT   MOCLDY    53  52  96 W5        29.78F
ST JOSEPH      PTCLDY    51  48  89 NW10      29.79F
CHILLICOTHE      N/A     52  47  83 NW3       29.76F
KIRKSVILLE     CLEAR     46  45  96 CALM      29.73F

$$
MOZ066>068-077>081-088>096-101>105-240600-
...SOUTHWEST MISSOURI...

CITY           SKY/WX    TMP DP  RH WIND       PRES   REMARKS
SPRINGFIELD    CLOUDY    56  49  77 CALM      29.75F
JOPLIN         CLOUDY    56  50  80 NW8       29.80F
BRANSON        CLEAR     54  50  87 CALM      29.76F

$$
MOZ032>034-039>042-045>050-055>058-069>072-240600-
...CENTRAL MISSOURI...

CITY           SKY/WX    TMP DP  RH WIND       PRES   REMARKS
COLUMBIA       CLEAR     53  48  83 NW5       29.73F
JEFFERSON CITY CLEAR     57  48  72 CALM      29.73F
ROLLA          CLEAR     51  48  89 NW6       29.71
SEDALIA        CLOUDY    57  51  80 NW6       29.76F
WHITEMAN AFB   CLOUDY    55  55  99 NW6       29.75F
WARRENSBURG    CLOUDY    52  50  93 CALM      29.77S
OSAGE BEACH    PTCLDY    54  48  80 CALM      29.75F

$$
MOZ051-052-059>065-240600-
...EAST CENTRAL MISSOURI...

CITY           SKY/WX    TMP DP  RH WIND       PRES   REMARKS
ST LOUIS INTL  LGT RAIN  63  57  81 W9        29.68F
SPIRIT OF STL  CLOUDY    58  54  86 NW6       29.69F
ST CHARLES     MOCLDY    58  55  90 N9        29.68F

$$
MOZ072>076-082>087-097>100-106>115-240600-
...SOUTH CENTRAL AND SOUTHEAST MISSOURI...

CITY           SKY/WX    TMP DP  RH WIND       PRES   REMARKS
CAPE GIRARDEAU MOCLDY    60  53  77 NW6       29.67F
FARMINGTON     CLOUDY    58  53  84 CALM      29.70F
POPLAR BLUFF   CLOUDY    60  58  92 N5        29.69S
WEST PLAINS    PTCLDY    55  51  86 W5        29.74F

$$




USA.gov is the U.S. government's official web portal to all federal, state and local government web resources and services.